When you browse on this site, cookies collect data to enhance your experience and personalize the content and advertising you see.
Visit our Privacy Policy to learn more. By continuing to use the site, you agree to this use of cookies and data.
  • In United Kingdom
  • List of Countries
  • For 7 days
  • Water Temperature
  • Weather Map
  • Weather Widgets
  • user-avatar
    Login

    Hourly Weather Truto

    Today, 21 November, Thursday

    Time Temperature Precipitation Wind Pressure Humidity
    00:00 +8°C° 1.7 mm 10 mps 746 mmHg 90%
    01:00 +8°C° 1.9 mm 9 mps 745 mmHg 90%
    02:00 +9°C° 1.9 mm 8 mps 745 mmHg 90%
    03:00 +9°C° 1.9 mm 7 mps 745 mmHg 90%
    04:00 +9°C° 1.1 mm 7 mps 745 mmHg 90%
    05:00 +9°C° 1.1 mm 7 mps 745 mmHg 90%
    06:00 +8°C° 1.1 mm 7 mps 745 mmHg 90%
    07:00 +9°C° 0.7 mm 7 mps 744 mmHg 90%
    08:00 +9°C° 0.7 mm 7 mps 744 mmHg 89%
    09:00 +9°C° 0.7 mm 7 mps 744 mmHg 89%
    10:00 +9°C° 0.9 mm 7 mps 744 mmHg 87%
    11:00 +9°C° 0.9 mm 7 mps 744 mmHg 86%
    12:00 +9°C° 0.9 mm 6 mps 744 mmHg 84%
    13:00 +9°C° 0.2 mm 6 mps 743 mmHg 83%
    14:00 +9°C° 0.2 mm 6 mps 743 mmHg 82%
    15:00 +9°C° 0.2 mm 6 mps 742 mmHg 82%
    16:00 +9°C° 0.1 mm 5 mps 742 mmHg 83%
    17:00 +8°C° 0.1 mm 5 mps 742 mmHg 85%
    18:00 +7°C° 0.1 mm 5 mps 742 mmHg 86%
    19:00 +7°C° 0.3 mm 5 mps 741 mmHg 86%
    20:00 +7°C° 0.3 mm 5 mps 741 mmHg 86%
    21:00 +7°C° 0.3 mm 5 mps 741 mmHg 87%
    22:00 +7°C° 0.2 mm 5 mps 741 mmHg 85%
    23:00 +7°C° 0.2 mm 6 mps 741 mmHg 84%

    Tomorrow, 22 November, Friday

    Time Temperature Precipitation Wind Pressure Humidity
    00:00 +7°C° 0.2 mm 6 mps 741 mmHg 82%
    01:00 +7°C° 0.1 mm 6 mps 740 mmHg 83%
    02:00 +7°C° 0.1 mm 6 mps 740 mmHg 83%
    03:00 +6°C° 0.1 mm 7 mps 740 mmHg 84%
    04:00 +6°C° 0.1 mm 7 mps 740 mmHg 83%
    05:00 +6°C° 0.1 mm 7 mps 740 mmHg 83%
    06:00 +6°C° 0.1 mm 7 mps 740 mmHg 82%
    07:00 +7°C° 0.1 mm 6 mps 740 mmHg 81%
    08:00 +7°C° 0.1 mm 6 mps 740 mmHg 81%
    09:00 +7°C° 0.1 mm 5 mps 740 mmHg 80%
    10:00 +7°C° 0.4 mm 5 mps 740 mmHg 81%
    11:00 +7°C° 0.4 mm 5 mps 740 mmHg 82%
    12:00 +8°C° 0.4 mm 5 mps 740 mmHg 82%
    13:00 +7°C° 1.1 mm 5 mps 740 mmHg 86%
    14:00 +7°C° 1.1 mm 5 mps 740 mmHg 89%
    15:00 +7°C° 1.1 mm 5 mps 739 mmHg 92%
    16:00 +7°C° 1 mm 6 mps 739 mmHg 91%
    17:00 +8°C° 1 mm 7 mps 739 mmHg 90%
    18:00 +7°C° 1 mm 8 mps 739 mmHg 89%
    19:00 +7°C° 1.2 mm 8 mps 739 mmHg 89%
    20:00 +7°C° 1.2 mm 9 mps 739 mmHg 89%
    21:00 +7°C° 1.2 mm 9 mps 739 mmHg 89%
    22:00 +7°C° 0.3 mm 9 mps 739 mmHg 89%
    23:00 +7°C° 0.3 mm 8 mps 739 mmHg 89%

    Day after tomorrow, 23 November, Saturday

    Time Temperature Precipitation Wind Pressure Humidity
    00:00 +8°C° 0.3 mm 7 mps 738 mmHg 89%
    01:00 +8°C° 0.5 mm 7 mps 738 mmHg 90%
    02:00 +8°C° 0.5 mm 7 mps 738 mmHg 91%
    03:00 +8°C° 0.5 mm 7 mps 738 mmHg 93%
    04:00 +8°C° 0.9 mm 7 mps 738 mmHg 93%
    05:00 +8°C° 0.9 mm 7 mps 738 mmHg 93%
    06:00 +8°C° 0.9 mm 7 mps 738 mmHg 94%
    07:00 +8°C° 0.8 mm 7 mps 739 mmHg 94%
    08:00 +9°C° 0.8 mm 6 mps 739 mmHg 95%
    09:00 +9°C° 0.8 mm 5 mps 739 mmHg 95%
    10:00 +9°C° 0.5 mm 5 mps 740 mmHg 95%
    11:00 +9°C° 0.5 mm 5 mps 740 mmHg 94%
    12:00 +9°C° 0.5 mm 5 mps 740 mmHg 94%
    13:00 +9°C° 0.3 mm 5 mps 741 mmHg 94%
    14:00 +9°C° 0.3 mm 5 mps 741 mmHg 94%
    15:00 +9°C° 0.3 mm 5 mps 742 mmHg 94%
    16:00 +9°C° 0.1 mm 5 mps 742 mmHg 93%
    17:00 +9°C° 0.1 mm 6 mps 743 mmHg 93%
    18:00 +9°C° 0.1 mm 6 mps 744 mmHg 92%
    19:00 +9°C° 0 mm 6 mps 745 mmHg 91%
    20:00 +9°C° 0 mm 6 mps 745 mmHg 90%
    21:00 +9°C° 0 mm 6 mps 746 mmHg 89%
    22:00 +9°C° 0 mm 6 mps 747 mmHg 90%
    23:00 +9°C° 0 mm 6 mps 747 mmHg 90%

    24 November, Sunday

    Time Temperature Precipitation Wind Pressure Humidity
    00:00 +9°C° 0 mm 6 mps 748 mmHg 91%
    01:00 +8°C° 0 mm 6 mps 748 mmHg 91%
    02:00 +8°C° 0 mm 6 mps 749 mmHg 91%
    03:00 +8°C° 0 mm 6 mps 749 mmHg 91%
    04:00 +8°C° 0 mm 6 mps 749 mmHg 90%
    05:00 +8°C° 0 mm 6 mps 750 mmHg 90%
    06:00 +7°C° 0 mm 6 mps 750 mmHg 90%
    07:00 +7°C° 0 mm 6 mps 751 mmHg 89%
    08:00 +7°C° 0 mm 6 mps 751 mmHg 88%
    09:00 +7°C° 0 mm 6 mps 751 mmHg 88%
    10:00 +8°C° 0 mm 6 mps 751 mmHg 86%
    11:00 +9°C° 0 mm 7 mps 751 mmHg 85%
    12:00 +10°C° 0 mm 8 mps 751 mmHg 83%
    13:00 +10°C° 0.2 mm 9 mps 751 mmHg 85%
    14:00 +9°C° 0.2 mm 10 mps 750 mmHg 87%
    15:00 +9°C° 0.2 mm 11 mps 750 mmHg 90%
    16:00 +9°C° 0.3 mm 11 mps 750 mmHg 91%
    17:00 +10°C° 0.3 mm 12 mps 749 mmHg 92%
    18:00 +10°C° 0.3 mm 12 mps 749 mmHg 93%
    19:00 +12°C° 0.3 mm 12 mps 748 mmHg 93%
    20:00 +12°C° 0.3 mm 12 mps 748 mmHg 93%
    21:00 +12°C° 0.3 mm 12 mps 748 mmHg 93%
    22:00 +12°C° 0.5 mm 13 mps 748 mmHg 93%
    23:00 +12°C° 0.5 mm 13 mps 748 mmHg 94%

    25 November, Monday

    Time Temperature Precipitation Wind Pressure Humidity
    00:00 +12°C° 0.5 mm 13 mps 747 mmHg 94%
    01:00 +12°C° 1.6 mm 12 mps 747 mmHg 94%
    02:00 +12°C° 1.6 mm 12 mps 747 mmHg 95%
    03:00 +11°C° 1.6 mm 11 mps 747 mmHg 95%
    04:00 +11°C° 0.1 mm 10 mps 747 mmHg 94%
    05:00 +10°C° 0.1 mm 8 mps 747 mmHg 93%
    06:00 +10°C° 0.1 mm 7 mps 748 mmHg 92%
    07:00 +10°C° 0 mm 7 mps 748 mmHg 90%
    08:00 +10°C° 0 mm 8 mps 749 mmHg 89%
    09:00 +10°C° 0 mm 8 mps 749 mmHg 88%
    10:00 +10°C° 0 mm 8 mps 750 mmHg 83%
    11:00 +10°C° 0 mm 9 mps 750 mmHg 79%
    12:00 +10°C° 0 mm 9 mps 751 mmHg 74%
    13:00 +10°C° 0 mm 9 mps 751 mmHg 75%
    14:00 +10°C° 0 mm 9 mps 751 mmHg 77%
    15:00 +10°C° 0 mm 9 mps 752 mmHg 78%
    16:00 +10°C° 0 mm 9 mps 752 mmHg 79%
    17:00 +8°C° 0 mm 9 mps 752 mmHg 80%
    18:00 +9°C° 0 mm 8 mps 753 mmHg 82%
    19:00 +9°C° 0 mm 8 mps 753 mmHg 81%
    20:00 +8°C° 0 mm 7 mps 753 mmHg 81%
    21:00 +8°C° 0 mm 7 mps 754 mmHg 80%
    22:00 +8°C° 0 mm 7 mps 754 mmHg 79%
    23:00 +9°C° 0 mm 6 mps 754 mmHg 78%

    26 November, Tuesday

    Time Temperature Precipitation Wind Pressure Humidity
    00:00 +9°C° 0 mm 6 mps 754 mmHg 78%
    01:00 +9°C° 0 mm 6 mps 753 mmHg 79%
    02:00 +9°C° 0 mm 6 mps 753 mmHg 81%
    03:00 +9°C° 0 mm 6 mps 753 mmHg 82%
    04:00 +9°C° 0 mm 6 mps 752 mmHg 83%
    05:00 +9°C° 0 mm 6 mps 752 mmHg 85%
    06:00 +9°C° 0 mm 7 mps 751 mmHg 86%
    07:00 +10°C° 0 mm 7 mps 751 mmHg 86%
    08:00 +10°C° 0 mm 8 mps 750 mmHg 87%
    09:00 +11°C° 0 mm 9 mps 750 mmHg 88%
    10:00 +11°C° 0.1 mm 9 mps 749 mmHg 86%
    11:00 +11°C° 0.1 mm 9 mps 748 mmHg 85%
    12:00 +12°C° 0.1 mm 10 mps 748 mmHg 84%
    13:00 +12°C° 0.2 mm 10 mps 747 mmHg 85%
    14:00 +11°C° 0.2 mm 11 mps 746 mmHg 86%
    15:00 +10°C° 0.2 mm 12 mps 744 mmHg 87%
    16:00 +11°C° 0.9 mm 11 mps 744 mmHg 88%
    17:00 +11°C° 0.9 mm 11 mps 743 mmHg 88%
    18:00 +11°C° 0.9 mm 10 mps 743 mmHg 88%
    19:00 +11°C° 0 mm 10 mps 742 mmHg 88%
    20:00 +10°C° 0 mm 9 mps 742 mmHg 89%
    21:00 +10°C° 0 mm 9 mps 742 mmHg 89%
    22:00 +9°C° 0.4 mm 10 mps 741 mmHg 87%
    23:00 +9°C° 0.4 mm 12 mps 740 mmHg 84%
    Show more